This is the latest recevied weather packets stored in our database for station/object K3SV. If no packets are shown the sender has not sent any weather packets the latest 10 day(s).
| Time | Temp. | Humidity | Pressure | Rain* | Wind** | Luminosity | Snow |
|---|---|---|---|---|---|---|---|
| 1777562596 | 28.89° C | 57% | 1012.6 hPa | 0 mm | - | 642 W/m² | - |
| 1777562295 | 28.89° C | 60% | 1012.5 hPa | 0 mm | - | 502 W/m² | - |
| 1777561991 | 28.33° C | 59% | 1012.6 hPa | 0 mm | - | 512 W/m² | - |
| 1777561689 | 28.33° C | 61% | 1012.5 hPa | 0 mm | - | 499 W/m² | - |
| 1777561384 | 28.33° C | 61% | 1012.4 hPa | 0 mm | - | 321 W/m² | - |
| 1777561079 | 27.78° C | 62% | 1012.4 hPa | 0 mm | - | 560 W/m² | - |
| 1777560775 | 27.78° C | 63% | 1012.4 hPa | 0 mm | - | 410 W/m² | - |
| 1777560472 | 27.78° C | 63% | 1012.4 hPa | 0 mm | - | 373 W/m² | - |
| 1777560170 | 27.78° C | 64% | 1012.6 hPa | 0 mm | - | 538 W/m² | - |
| 1777559867 | 27.22° C | 67% | 1012.5 hPa | 0 mm | - | 545 W/m² | - |
| 1777559563 | 26.67° C | 70% | 1012.2 hPa | 0 mm | - | 499 W/m² | - |
| 1777559260 | 26.67° C | 72% | 1012.3 hPa | 0 mm | - | 485 W/m² | - |
| 1777558955 | 26.67° C | 71% | 1012.2 hPa | 0 mm | - | 442 W/m² | - |
| 1777558652 | 26.67° C | 70% | 1012.2 hPa | 0 mm | - | 381 W/m² | - |
| 1777558347 | 26.11° C | 73% | 1011.9 hPa | 0 mm | - | 457 W/m² | - |
| 1777558044 | 25.56° C | 76% | 1012 hPa | 0 mm | - | 420 W/m² | - |
| 1777557740 | 25.56° C | 78% | 1012.1 hPa | 0 mm | - | 379 W/m² | - |
| 1777557437 | 25° C | 81% | 1012.1 hPa | 0 mm | - | 389 W/m² | - |
| 1777557134 | 24.44° C | 83% | 1011.9 hPa | 0 mm | - | 399 W/m² | - |
| 1777556829 | 24.44° C | 84% | 1012.2 hPa | 0 mm | - | 176 W/m² | - |
| 1777556526 | 25° C | 85% | 1012 hPa | 0 mm | - | 397 W/m² | - |
| 1777556225 | 24.44° C | 87% | 1012 hPa | 0 mm | - | 423 W/m² | - |
| 1777555921 | 23.89° C | 88% | 1012.4 hPa | 0 mm | - | 335 W/m² | - |
| 1777555617 | 23.89° C | 89% | 1012.4 hPa | 0 mm | - | 89 W/m² | - |
| 1777555314 | 23.89° C | 91% | 1013 hPa | 0 mm | - | 142 W/m² | - |
* Rain latest hour (hover to see other rain measurements)
** Current wind speed in m/s (hover to see current wind gust speed)